Weather History for Brookings, SD

Change the Weather History Date:

Wednesday, January 2, 2013

  Actual Average Record
Temperature  
Mean Temperature 19 °F -  
Max Temperature 30 °F 23 °F 51 °F (1998)
Min Temperature 8 °F 8 °F -11 °F (2008)
Degree Days  
Heating Degree Days 46    
Moisture  
Dew Point 19 °F    
Average Humidity 90    
Maximum Humidity 100    
Minimum Humidity 73    
Precipitation  
Precipitation 0.00 in - - ()
Sea Level Pressure  
Sea Level Pressure 29.99 in    
Wind  
Wind Speed 9 mph (West)    
Max Wind Speed 22 mph    
Max Gust Speed 29 mph    
Visibility 9 miles    
Events      
Averages and records for this station are not official NWS values.
T = Trace of Precipitation, MM = Missing Value Source: NWS Daily Summary

Daily Weather History Graph

Daily Weather History Graph

Search for Another Location

Airport:

Trip Planner

Search our weather history database for the weather conditions in past years. The results will help you decide how hot, cold, wet, or windy it might be!

Date:

Astronomy

Jan. 02, 2013 Rise Set
Actual Time 8:03 AM CST 5:00 PM CST
Civil Twilight 7:30 AM CST 5:33 PM CST
Nautical Twilight 6:53 AM CST 6:09 PM CST
Astronomical Twilight 6:18 AM CST 6:44 PM CST
Moon 10:47 PM CST (1/2) 10:33 AM CST (1/2)
Length of Visible Light 10h 03m
Length of Day
8h 56m
Waning Gibbous, 75% of the Moon is Illuminated
Jan 2
Waning Gibbous
Jan 4
Last Quarter
Jan 11
New
Jan 18
First Quarter
Jan 26
Full

Hourly Weather History & Observations

Time (CST) Temp. Windchill Dew Point Humidity Pressure Visibility Wind Dir Wind Speed Gust Speed Precip Events Conditions
12:15 AM 8.6 °F - 8.6 °F 100% 29.95 in 5.0 mi Calm Calm - N/A   Clear
12:35 AM 8.6 °F 0.1 °F 8.6 °F 100% 29.94 in 5.0 mi SSE 4.6 mph - N/A   Clear
12:55 AM 10.4 °F 0.8 °F 10.4 °F 100% 29.94 in 6.0 mi SSE 5.8 mph - N/A   Clear
1:15 AM 8.6 °F 2.0 °F 8.6 °F 100% 29.93 in 5.0 mi SE 3.5 mph - N/A   Clear
1:35 AM 8.6 °F -3.7 °F 6.8 °F 92% 29.93 in 5.0 mi South 8.1 mph - N/A   Clear
1:55 AM 10.4 °F -3.3 °F 6.8 °F 85% 29.92 in 6.0 mi South 10.4 mph - N/A   Clear
2:15 AM 10.4 °F -2.4 °F 8.6 °F 92% 29.93 in 6.0 mi South 9.2 mph - N/A   Clear
2:35 AM 8.6 °F -2.6 °F 6.8 °F 92% 29.94 in 7.0 mi South 6.9 mph - N/A   Clear
2:55 AM 8.6 °F -2.6 °F 6.8 °F 92% 29.94 in 7.0 mi South 6.9 mph - N/A   Clear
3:15 AM 8.6 °F -1.3 °F 6.8 °F 92% 29.93 in 7.0 mi South 5.8 mph - N/A   Clear
3:35 AM 8.6 °F 2.0 °F 6.8 °F 92% 29.93 in 8.0 mi South 3.5 mph - N/A   Partly Cloudy
3:55 AM 8.6 °F -1.3 °F 8.6 °F 100% 29.92 in 8.0 mi South 5.8 mph - N/A   Scattered Clouds
4:15 AM 8.6 °F -2.6 °F 6.8 °F 92% 29.92 in 9.0 mi SSW 6.9 mph - N/A   Overcast
4:35 AM 10.4 °F -0.4 °F 6.8 °F 85% 29.92 in 10.0 mi SSW 6.9 mph - N/A   Overcast
4:55 AM 10.4 °F -0.4 °F 8.6 °F 92% 29.92 in 10.0 mi SSW 6.9 mph - N/A   Overcast
5:15 AM 12.2 °F 1.7 °F 12.2 °F 100% 29.91 in 9.0 mi SSW 6.9 mph - N/A   Overcast
5:35 AM 15.8 °F 7.2 °F 14.0 °F 93% 29.91 in 6.0 mi SSW 5.8 mph - N/A   Overcast
5:55 AM 17.6 °F 10.7 °F 15.8 °F 93% 29.91 in 10.0 mi SSW 4.6 mph - N/A   Overcast
6:15 AM 17.6 °F 12.3 °F 17.6 °F 100% 29.91 in 7.0 mi SW 3.5 mph - N/A   Overcast
6:35 AM 19.4 °F - 17.6 °F 93% 29.91 in 9.0 mi Calm Calm - N/A   Overcast
6:55 AM 21.2 °F 12.6 °F 21.2 °F 100% 29.91 in 10.0 mi West 6.9 mph - N/A   Overcast
7:15 AM 23.0 °F 11.1 °F 21.2 °F 93% 29.91 in 10.0 mi West 12.7 mph - N/A   Overcast
7:35 AM 23.0 °F 13.1 °F 21.2 °F 93% 29.92 in 10.0 mi West 9.2 mph - N/A   Overcast
7:55 AM 24.8 °F 13.4 °F 21.2 °F 86% 29.92 in 10.0 mi West 12.7 mph - N/A   Overcast
8:15 AM 24.8 °F 13.4 °F 23.0 °F 93% 29.93 in 10.0 mi West 12.7 mph - N/A   Overcast
8:35 AM 24.8 °F 14.6 °F 23.0 °F 93% 29.93 in 10.0 mi West 10.4 mph - N/A   Overcast
8:55 AM 24.8 °F 15.3 °F 24.8 °F 100% 29.94 in 8.0 mi West 9.2 mph - N/A   Overcast
9:15 AM 24.8 °F 15.3 °F 24.8 °F 100% 29.95 in 9.0 mi West 9.2 mph - N/A   Overcast
9:35 AM 24.8 °F 14.6 °F 24.8 °F 100% 29.95 in 10.0 mi West 10.4 mph - N/A   Overcast
9:55 AM 26.6 °F 15.7 °F 24.8 °F 93% 29.96 in 5.0 mi West 12.7 mph - N/A   Overcast
10:15 AM 26.6 °F 16.2 °F 24.8 °F 93% 29.96 in 10.0 mi West 11.5 mph - N/A   Overcast
10:35 AM 26.6 °F 15.2 °F 24.8 °F 93% 29.96 in 10.0 mi West 13.8 mph - N/A   Overcast
10:55 AM 26.6 °F 15.2 °F 24.8 °F 93% 29.96 in 10.0 mi West 13.8 mph - N/A   Overcast
11:15 AM 26.6 °F 17.5 °F 24.8 °F 93% 29.96 in 10.0 mi West 9.2 mph - N/A   Overcast
11:35 AM 28.4 °F 18.5 °F 24.8 °F 86% 29.96 in 10.0 mi West 11.5 mph - N/A   Overcast
11:55 AM 28.4 °F 17.5 °F 26.6 °F 93% 29.96 in 10.0 mi WNW 13.8 mph - N/A   Overcast
12:15 PM 28.4 °F 16.6 °F 26.6 °F 93% 29.96 in 10.0 mi WNW 16.1 mph - N/A   Overcast
12:35 PM 30.2 °F 18.5 °F 26.6 °F 86% 29.95 in 10.0 mi WNW 17.3 mph 21.9 mph N/A   Overcast
12:55 PM 30.2 °F 18.5 °F 26.6 °F 86% 29.95 in 10.0 mi WNW 17.3 mph - N/A   Overcast
1:15 PM 30.2 °F 17.8 °F 26.6 °F 86% 29.96 in 10.0 mi WNW 19.6 mph 28.8 mph N/A   Overcast
1:35 PM 30.2 °F 17.1 °F 26.6 °F 86% 29.96 in 10.0 mi WNW 21.9 mph 26.5 mph N/A   Overcast
1:55 PM 30.2 °F 18.5 °F 24.8 °F 80% 29.97 in 10.0 mi WNW 17.3 mph 25.3 mph N/A   Overcast
2:15 PM 30.2 °F 18.5 °F 24.8 °F 80% 29.97 in 10.0 mi WNW 17.3 mph - N/A   Overcast
2:35 PM 30.2 °F 18.5 °F 23.0 °F 75% 29.98 in 10.0 mi WNW 17.3 mph 21.9 mph N/A   Overcast
2:55 PM 30.2 °F 19.3 °F 23.0 °F 75% 29.98 in 10.0 mi WNW 15.0 mph - N/A   Overcast
3:15 PM 30.2 °F 18.9 °F 23.0 °F 75% 29.99 in 10.0 mi WNW 16.1 mph - N/A   Overcast
3:35 PM 30.2 °F 19.8 °F 24.8 °F 80% 30.00 in 10.0 mi WNW 13.8 mph - N/A   Overcast
3:55 PM 30.2 °F 20.8 °F 24.8 °F 80% 30.01 in 10.0 mi WNW 11.5 mph - N/A   Overcast
4:15 PM 28.4 °F 19.7 °F 24.8 °F 86% 30.01 in 10.0 mi West 9.2 mph - N/A   Mostly Cloudy
4:35 PM 26.6 °F 16.8 °F 23.0 °F 86% 30.02 in 10.0 mi West 10.4 mph - N/A   Partly Cloudy
4:55 PM 26.6 °F 16.2 °F 23.0 °F 86% 30.02 in 10.0 mi West 11.5 mph - N/A   Scattered Clouds
5:15 PM 28.4 °F 17.0 °F 24.8 °F 86% 30.03 in 10.0 mi West 15.0 mph - N/A   Overcast
5:35 PM 28.4 °F 18.0 °F 24.8 °F 86% 30.03 in 10.0 mi West 12.7 mph - N/A   Overcast
5:55 PM 28.4 °F 19.7 °F 24.8 °F 86% 30.04 in 10.0 mi West 9.2 mph - N/A   Overcast
6:15 PM 28.4 °F 19.7 °F 24.8 °F 86% 30.05 in 10.0 mi West 9.2 mph - N/A   Overcast
6:35 PM 26.6 °F 17.5 °F 24.8 °F 93% 30.05 in 10.0 mi West 9.2 mph - N/A   Overcast
6:55 PM 26.6 °F 15.7 °F 24.8 °F 93% 30.06 in 10.0 mi West 12.7 mph - N/A   Overcast
7:15 PM 26.6 °F 16.2 °F 24.8 °F 93% 30.07 in 10.0 mi West 11.5 mph - N/A   Overcast
7:55 PM 28.4 °F 18.5 °F 24.8 °F 86% 30.08 in 10.0 mi West 11.5 mph - N/A   Overcast
8:15 PM 28.4 °F 18.0 °F 24.8 °F 86% 30.08 in 10.0 mi West 12.7 mph - N/A   Overcast
8:35 PM 28.4 °F 17.0 °F 24.8 °F 86% 30.09 in 10.0 mi West 15.0 mph - N/A   Overcast
8:55 PM 28.4 °F 17.5 °F 26.6 °F 93% 30.09 in 10.0 mi West 13.8 mph - N/A   Overcast
9:15 PM 28.4 °F 14.7 °F 26.6 °F 93% 30.11 in 2.0 mi NW 21.9 mph - N/A   Overcast
9:35 PM 26.6 °F 13.1 °F 24.8 °F 93% 30.12 in 3.0 mi NNW 19.6 mph 26.5 mph N/A   Overcast
9:55 PM 24.8 °F 11.1 °F 23.0 °F 93% 30.13 in 9.0 mi NW 18.4 mph 24.2 mph N/A   Overcast
10:15 PM 24.8 °F 10.7 °F 21.2 °F 86% 30.14 in 7.0 mi NW 19.6 mph - N/A   Overcast
10:35 PM 21.2 °F 6.4 °F 19.4 °F 93% 30.15 in 8.0 mi NNW 18.4 mph 23.0 mph N/A   Overcast
10:55 PM 19.4 °F 3.6 °F 15.8 °F 86% 30.16 in 9.0 mi NW 19.6 mph 23.0 mph N/A   Overcast
11:15 PM 17.6 °F 2.2 °F 12.2 °F 79% 30.17 in 10.0 mi NW 17.3 mph - N/A   Mostly Cloudy
11:35 PM 15.8 °F 0.3 °F 8.6 °F 73% 30.18 in 10.0 mi NW 16.1 mph - N/A   Partly Cloudy
11:55 PM 14.0 °F -3.0 °F 8.6 °F 79% 30.19 in 10.0 mi NW 18.4 mph - N/A   Clear